Weather History for KGCM - December, 2012

Change the Weather History Date:

Monday, December 24, 2012

  Actual Average (KTUL) Record (KTUL)
Temperature  
Mean Temperature 30 °F 38 °F  
Max Temperature 37 °F 48 °F 80 °F (1955)
Min Temperature 23 °F 28 °F -2 °F (1983)
Degree Days  
Heating Degree Days 35 27  
Month to date heating degree days 601  
Since 1 July heating degree days 1237  
Moisture  
Dew Point 23 °F    
Average Humidity 75    
Maximum Humidity 93    
Minimum Humidity 56    
Precipitation  
Precipitation 0.00 in 0.07 in 2.80 in (1965)
Month to date precipitation 2.01  
Year to date precipitation 40.49  
Sea Level Pressure  
Sea Level Pressure 30.03 in    
Wind  
Wind Speed 8 mph (NNE)    
Max Wind Speed 18 mph    
Max Gust Speed 24 mph    
Visibility 6 miles    
Events      
T = Trace of Precipitation, MM = Missing Value Source: NWS Daily Summary

Daily Weather History Graph

Daily Weather History Graph

Search for Another Location

Airport or City:

Trip Planner

Search our weather history database for the weather conditions in past years. The results will help you decide how hot, cold, wet, or windy it might be!

Date:

Astronomy

Dec. 24, 2012 Rise Set
Actual Time 7:31 AM CST 5:12 PM CST
Civil Twilight 7:02 AM CST 5:41 PM CST
Nautical Twilight 6:30 AM CST 6:13 PM CST
Astronomical Twilight 5:58 AM CST 6:44 PM CST
Moon 2:38 PM CST (12/24) 4:12 AM CST (12/24)
Length of Visible Light 10h 38m
Length of Day
9h 41m
Waxing Gibbous, 88% of the Moon is Illuminated
Dec 24
Waxing Gibbous
Dec 28
Full
Jan 4
Last Quarter
Jan 11
New
Jan 18
First Quarter

Hourly Weather History & Observations

Time (CST) Temp. Windchill Dew Point Humidity Pressure Visibility Wind Dir Wind Speed Gust Speed Precip Events Conditions
12:15 AM 30.2 °F 23.4 °F 26.6 °F 86% 29.98 in 5.0 mi North 6.9 mph - N/A   Haze
12:35 AM 30.2 °F 23.4 °F 26.6 °F 86% 29.99 in 5.0 mi NW 6.9 mph - N/A   Haze
12:55 AM 30.2 °F 21.9 °F 26.6 °F 86% 30.00 in 5.0 mi NNW 9.2 mph 18.4 mph N/A   Clear
1:15 AM 30.2 °F 26.7 °F 26.6 °F 86% 29.98 in 5.0 mi North 3.5 mph - N/A   Clear
1:35 AM 28.4 °F 24.6 °F 24.8 °F 86% 29.97 in 5.0 mi NNW 3.5 mph - N/A   Clear
1:55 AM 28.4 °F 24.6 °F 24.8 °F 86% 29.96 in 5.0 mi North 3.5 mph - N/A   Clear
2:15 AM 28.4 °F 22.2 °F 24.8 °F 86% 29.98 in 4.0 mi North 5.8 mph - N/A   Clear
2:35 AM 28.4 °F 20.4 °F 23.0 °F 80% 29.98 in 5.0 mi North 8.1 mph - N/A   Clear
2:55 AM 28.4 °F 19.1 °F 23.0 °F 80% 29.99 in 5.0 mi North 10.4 mph 16.1 mph N/A   Clear
3:15 AM 28.4 °F 22.2 °F 23.0 °F 80% 30.01 in 5.0 mi WNW 5.8 mph - N/A   Clear
3:35 AM 26.6 °F 19.1 °F 23.0 °F 86% 30.03 in 5.0 mi NW 6.9 mph - N/A   Clear
3:55 AM 26.6 °F 20.0 °F 23.0 °F 86% 30.01 in 5.0 mi North 5.8 mph - N/A   Clear
4:15 AM 26.6 °F 18.2 °F 23.0 °F 86% 30.00 in 5.0 mi North 8.1 mph - N/A   Clear
4:35 AM 26.6 °F 20.0 °F 23.0 °F 86% 30.03 in 5.0 mi North 5.8 mph - N/A   Clear
4:55 AM 26.6 °F 21.2 °F 21.2 °F 80% 30.04 in 5.0 mi NW 4.6 mph - N/A   Haze
5:15 AM 26.6 °F 20.0 °F 23.0 °F 86% 30.05 in 5.0 mi NNW 5.8 mph - N/A   Clear
5:35 AM 26.6 °F 18.2 °F 21.2 °F 80% 30.05 in 5.0 mi NNW 8.1 mph - N/A   Clear
5:55 AM 26.6 °F 18.2 °F 21.2 °F 80% 30.08 in 5.0 mi WNW 8.1 mph - N/A   Clear
6:15 AM 24.8 °F 16.1 °F 21.2 °F 86% 30.08 in 4.0 mi NW 8.1 mph - N/A   Clear
6:35 AM 23.0 °F 13.9 °F 21.2 °F 93% 30.07 in 4.0 mi North 8.1 mph - N/A   Clear
6:55 AM 23.0 °F 13.1 °F 21.2 °F 93% 30.08 in 4.0 mi NNW 9.2 mph - N/A   Clear
7:15 AM 23.0 °F 13.9 °F 21.2 °F 93% 30.07 in 4.0 mi North 8.1 mph - N/A   Clear
7:55 AM 23.0 °F 17.0 °F 21.2 °F 93% 30.08 in 4.0 mi North 4.6 mph - N/A   Clear
8:15 AM 24.8 °F 19.1 °F 21.2 °F 86% 30.09 in 4.0 mi North 4.6 mph - N/A   Clear
8:35 AM 26.6 °F 19.1 °F 21.2 °F 80% 30.09 in 5.0 mi North 6.9 mph - N/A   Clear
8:55 AM 26.6 °F 17.5 °F 21.2 °F 80% 30.07 in 5.0 mi NNE 9.2 mph - N/A   Clear
9:15 AM 26.6 °F 16.2 °F 21.2 °F 80% 30.06 in 5.0 mi NE 11.5 mph - N/A   Haze
9:35 AM 26.6 °F 19.1 °F 21.2 °F 80% 30.10 in 5.0 mi North 6.9 mph - N/A   Haze
9:55 AM 28.4 °F 22.2 °F 23.0 °F 80% 30.10 in 5.0 mi NNE 5.8 mph - N/A   Haze
10:15 AM 28.4 °F 19.7 °F 23.0 °F 80% 30.09 in 7.0 mi NNE 9.2 mph - N/A   Clear
10:35 AM 30.2 °F 23.4 °F 23.0 °F 75% 30.10 in 7.0 mi NNE 6.9 mph - N/A   Clear
10:55 AM 30.2 °F 23.4 °F 23.0 °F 75% 30.09 in 7.0 mi NNE 6.9 mph - N/A   Clear
11:15 AM 32.0 °F 24.8 °F 23.0 °F 69% 30.08 in 7.0 mi North 8.1 mph - N/A   Clear
11:35 AM 32.0 °F 25.6 °F 23.0 °F 69% 30.08 in 7.0 mi North 6.9 mph - N/A   Clear
11:55 AM 32.0 °F 25.6 °F 23.0 °F 69% 30.07 in 7.0 mi NE 6.9 mph - N/A   Clear
12:15 PM 32.0 °F 24.8 °F 23.0 °F 69% 30.03 in 7.0 mi NE 8.1 mph - N/A   Clear
12:35 PM 33.8 °F 29.6 °F 23.0 °F 65% 30.05 in 7.0 mi North 4.6 mph - N/A   Clear
12:55 PM 33.8 °F 26.4 °F 23.0 °F 65% 30.02 in 7.0 mi NNE 9.2 mph - N/A   Clear
1:15 PM 33.8 °F 26.4 °F 23.0 °F 65% 30.03 in 7.0 mi North 9.2 mph - N/A   Clear
1:35 PM 35.6 °F 29.9 °F 23.0 °F 60% 30.03 in 7.0 mi NNE 6.9 mph - N/A   Clear
1:55 PM 35.6 °F 27.5 °F 24.8 °F 65% 30.03 in 7.0 mi North 11.5 mph - N/A   Clear
2:15 PM 37.4 °F 30.3 °F 24.8 °F 60% 30.03 in 10.0 mi North 10.4 mph - N/A   Clear
2:35 PM 35.6 °F 29.2 °F 24.8 °F 65% 30.03 in 7.0 mi North 8.1 mph - N/A   Clear
2:55 PM 37.4 °F 30.3 °F 23.0 °F 56% 30.03 in 7.0 mi NNE 10.4 mph - N/A   Clear
3:15 PM 35.6 °F 28.0 °F 23.0 °F 60% 30.03 in 7.0 mi North 10.4 mph - N/A   Clear
3:35 PM 35.6 °F 28.6 °F 23.0 °F 60% 30.02 in 7.0 mi NNE 9.2 mph 16.1 mph N/A   Clear
3:55 PM 35.6 °F 28.6 °F 23.0 °F 60% 30.02 in 7.0 mi North 9.2 mph - N/A   Clear
4:15 PM 35.6 °F 29.2 °F 23.0 °F 60% 30.03 in 10.0 mi NE 8.1 mph - N/A   Clear
4:35 PM 35.6 °F 28.6 °F 23.0 °F 60% 30.03 in 10.0 mi NNE 9.2 mph - N/A   Clear
4:55 PM 33.8 °F 26.4 °F 23.0 °F 65% 30.03 in 10.0 mi NNE 9.2 mph - N/A   Clear
5:15 PM 33.8 °F 27.7 °F 23.0 °F 65% 30.03 in 7.0 mi NNE 6.9 mph - N/A   Clear
5:35 PM 32.0 °F 26.4 °F 23.0 °F 69% 30.03 in 7.0 mi ENE 5.8 mph - N/A   Clear
5:55 PM 32.0 °F 25.6 °F 23.0 °F 69% 30.03 in 7.0 mi NNE 6.9 mph - N/A   Clear
6:15 PM 32.0 °F 23.6 °F 23.0 °F 69% 30.02 in 7.0 mi NNE 10.4 mph - N/A   Clear
6:35 PM 32.0 °F 23.6 °F 23.0 °F 69% 30.00 in 7.0 mi NE 10.4 mph - N/A   Clear
6:55 PM 32.0 °F 23.0 °F 23.0 °F 69% 30.00 in 7.0 mi NE 11.5 mph - N/A   Clear
7:15 PM 32.0 °F 21.6 °F 23.0 °F 69% 30.00 in 7.0 mi NNE 15.0 mph - N/A   Clear
7:35 PM 32.0 °F 21.2 °F 23.0 °F 69% 30.00 in 7.0 mi NE 16.1 mph 24.2 mph N/A   Clear
7:55 PM 32.0 °F 22.1 °F 23.0 °F 69% 30.00 in 7.0 mi NE 13.8 mph 18.4 mph N/A   Clear
8:15 PM 32.0 °F 23.0 °F 23.0 °F 69% 30.01 in 5.0 mi NE 11.5 mph - N/A   Haze
8:35 PM 30.2 °F 20.2 °F 23.0 °F 75% 30.01 in 5.0 mi NE 12.7 mph 20.7 mph N/A   Haze
8:55 PM 30.2 °F 20.2 °F 23.0 °F 75% 30.00 in 5.0 mi NE 12.7 mph 18.4 mph N/A   Haze
9:15 PM 30.2 °F 19.8 °F 23.0 °F 75% 30.00 in 5.0 mi NE 13.8 mph 21.9 mph N/A   Haze
9:35 PM 30.2 °F 19.8 °F 23.0 °F 75% 30.00 in 5.0 mi NE 13.8 mph 20.7 mph N/A   Haze
9:55 PM 30.2 °F 18.5 °F 23.0 °F 75% 29.98 in 5.0 mi NE 17.3 mph 24.2 mph N/A   Haze
10:15 PM 30.2 °F 18.9 °F 23.0 °F 75% 29.98 in 5.0 mi NE 16.1 mph 21.9 mph N/A   Haze
10:35 PM 30.2 °F 19.8 °F 23.0 °F 75% 29.99 in 5.0 mi NE 13.8 mph 21.9 mph N/A   Haze
10:55 PM 28.4 °F 15.8 °F 21.2 °F 74% 30.00 in 5.0 mi NE 18.4 mph 24.2 mph N/A   Haze
11:15 PM 30.2 °F 19.8 °F 23.0 °F 75% 30.01 in 5.0 mi NNE 13.8 mph 20.7 mph N/A   Haze
11:35 PM 28.4 °F 20.4 °F 23.0 °F 80% 30.02 in 5.0 mi NNE 8.1 mph - N/A   Haze
11:55 PM 28.4 °F 19.1 °F 23.0 °F 80% 30.02 in 4.0 mi NNE 10.4 mph 16.1 mph N/A   Haze